User: anonymous   Login
Location: Haliburton Scout Reserve
(45.0900°N, 78.3200°W)
Time: 04:22:27
(UTC-04:00)
Language:

DELFI C3 - Orbit

View from above orbital plane
View from above orbital plane
View from above satellite
View from above satellite

Ground track
Ground track

The orbit data is extracted from the following two-line orbital elements,

1 32789U 08021G   22136.08541106  .00019348  00000-0  10975-2 0  9998
2 32789  97.3408 163.5679 0012564  81.8740 278.3916 15.12934345767132
Epoch (UTC): 16 May 2022 02:02:59
Eccentricity: 0.0012564
inclination: 97.3408°
perigee height: 518 km
apogee height: 536 km
right ascension of ascending node: 163.5679°
argument of perigee: 81.8740°
revolutions per day: 15.12934345
mean anomaly at epoch: 278.3916°
orbit number at epoch: 76713

The dashed part of the orbit path shows where the satellite is in the earth's shadow,  

DLR